Weather reports worldwide

Advertisment
Sheffield, United Kingdom (99107): temperature & dewpoint: 22.03.2020 20:00:00 - 28.03.2020 20:00:00 (GMT)Sheffield, United Kingdom (99107): sunshine duration: 22.03.2020 20:00:00 - 28.03.2020 20:00:00 (GMT)Sheffield, United Kingdom (99107): precipitation: 22.03.2020 20:00:00 - 28.03.2020 20:00:00 (GMT)
Date & Time tt [°C] td [°C] sd [min] rr [mm]
28.03.2020 20:00:00 3,8 -0,3 0 0,2
28.03.2020 19:00:00 4,4 -0,3 0 0,0
28.03.2020 18:00:00 5,4 -1,0 6 0,0
28.03.2020 17:00:00 5,6 1,0 0 0,0
28.03.2020 16:00:00 7,2 0,0 0 0,0
28.03.2020 15:00:00 7,9 0,4 0 0,0
28.03.2020 14:00:00 7,9 2,6 0 0,0
28.03.2020 13:00:00 9,0 1,6 18 0,0
28.03.2020 12:00:00 8,9 1,9 6 0,0
28.03.2020 11:00:00 8,3 2,2 12 0,0
28.03.2020 10:00:00 7,7 2,9 6 0,0
28.03.2020 09:00:00 6,2 2,8 0 0,0
28.03.2020 08:00:00 6,1 3,2 0 0,0
28.03.2020 07:00:00 5,6 3,3 0 0,0
28.03.2020 06:00:00 5,3 3,0 0 0,0
28.03.2020 05:00:00 5,1 4,5 0 0,0
28.03.2020 04:00:00 4,4 3,5 0 0,0
28.03.2020 03:00:00 3,7 2,8 0 0,0
28.03.2020 02:00:00 3,1 1,9 0 0,0
28.03.2020 01:00:00 3,2 1,7 0 0,0
28.03.2020 00:00:00 3,3 1,3 - 0,0
27.03.2020 23:00:00 3,6 0,8 0 0,0
27.03.2020 22:00:00 3,8 -0,9 0 0,0
27.03.2020 21:00:00 4,3 -2,4 0 0,0
27.03.2020 20:00:00 5,4 -2,4 0 0,0
27.03.2020 19:00:00 6,9 -3,0 0 0,0
27.03.2020 18:00:00 8,3 -3,5 54 0,0
27.03.2020 17:00:00 9,6 -4,1 60 0,0
27.03.2020 16:00:00 10,7 -1,7 60 0,0
27.03.2020 15:00:00 11,1 -2,3 60 0,0
27.03.2020 14:00:00 10,3 -0,2 60 0,0
27.03.2020 13:00:00 9,2 2,1 60 0,0
27.03.2020 12:00:00 8,7 2,3 60 0,0
27.03.2020 11:00:00 6,6 2,3 42 0,0
27.03.2020 10:00:00 4,7 2,3 0 0,0
27.03.2020 09:00:00 3,6 2,4 0 0,0
27.03.2020 08:00:00 2,4 1,8 0 0,0
27.03.2020 07:00:00 2,4 1,8 0 0,0
27.03.2020 06:00:00 2,1 1,7 0 0,0
27.03.2020 05:00:00 1,8 1,3 0 0,0
27.03.2020 04:00:00 1,9 1,3 0 0,0
27.03.2020 03:00:00 1,5 0,9 0 0,0
27.03.2020 02:00:00 1,7 0,9 0 0,0
27.03.2020 01:00:00 1,3 -0,4 0 0,0
27.03.2020 00:00:00 2,7 0,8 - 0,0
26.03.2020 23:00:00 3,7 0,7 0 0,0
26.03.2020 22:00:00 4,6 0,0 0 0,0
26.03.2020 21:00:00 6,1 -0,7 0 0,0
26.03.2020 20:00:00 7,4 -2,4 0 0,0
26.03.2020 19:00:00 9,2 -5,2 0 0,0
26.03.2020 18:00:00 10,9 -3,8 54 0,0
26.03.2020 17:00:00 12,2 -3,6 60 0,0
26.03.2020 16:00:00 13,1 -2,7 60 0,0
26.03.2020 15:00:00 13,4 -1,8 60 0,0
26.03.2020 14:00:00 12,7 -2,4 60 0,0
26.03.2020 13:00:00 11,8 -4,9 60 0,0
26.03.2020 12:00:00 10,5 -7,4 60 0,0
26.03.2020 11:00:00 10,3 -8,3 60 0,0
26.03.2020 10:00:00 8,5 -2,2 60 0,0
26.03.2020 09:00:00 6,0 -0,2 60 0,0
26.03.2020 08:00:00 2,9 -1,0 60 0,0
26.03.2020 07:00:00 0,3 -1,7 36 0,0
26.03.2020 06:00:00 -0,2 -2,3 0 0,0
26.03.2020 05:00:00 0,5 -1,7 0 0,0
26.03.2020 04:00:00 1,4 -1,1 0 0,0
26.03.2020 03:00:00 2,1 -0,4 0 0,0
26.03.2020 02:00:00 2,6 -0,3 0 0,0
26.03.2020 01:00:00 3,9 -0,1 0 0,0
26.03.2020 00:00:00 4,8 0,2 - 0,0
25.03.2020 23:00:00 6,0 -0,4 0 0,0
25.03.2020 22:00:00 7,2 -0,3 0 0,0
25.03.2020 21:00:00 9,6 -2,2 0 0,0
25.03.2020 20:00:00 10,8 -2,2 0 0,0
25.03.2020 19:00:00 12,1 -2,7 0 0,0
25.03.2020 18:00:00 13,7 -4,1 54 0,0
25.03.2020 17:00:00 15,0 -6,6 60 0,0
25.03.2020 16:00:00 15,8 -4,7 60 0,0
25.03.2020 15:00:00 16,5 -3,6 60 0,0
25.03.2020 14:00:00 15,7 -2,7 60 0,0
25.03.2020 13:00:00 16,0 0,4 60 0,0
25.03.2020 12:00:00 15,4 1,2 60 0,0
25.03.2020 11:00:00 14,9 0,8 60 0,0
25.03.2020 10:00:00 11,6 0,0 60 0,0
25.03.2020 09:00:00 10,4 1,0 60 0,0
25.03.2020 08:00:00 7,7 0,3 60 0,0
25.03.2020 07:00:00 5,1 -0,7 36 0,0
25.03.2020 06:00:00 4,5 0,5 0 0,0
25.03.2020 05:00:00 5,5 0,7 0 0,0
25.03.2020 04:00:00 6,7 1,0 0 0,0
25.03.2020 03:00:00 7,7 2,4 0 0,0
25.03.2020 02:00:00 8,7 2,9 0 0,0
25.03.2020 01:00:00 9,2 3,2 0 0,0
25.03.2020 00:00:00 9,9 3,8 - 0,0
24.03.2020 23:00:00 10,7 4,8 0 0,0
24.03.2020 22:00:00 11,3 5,6 0 0,0
24.03.2020 21:00:00 11,8 6,3 0 0,0
24.03.2020 20:00:00 12,6 6,5 0 0,0
24.03.2020 19:00:00 12,4 6,4 0 0,0
24.03.2020 18:00:00 14,0 6,5 0 0,0
24.03.2020 17:00:00 15,2 6,6 36 0,0
24.03.2020 16:00:00 16,4 6,4 60 0,0
24.03.2020 15:00:00 17,1 6,8 60 0,0
24.03.2020 14:00:00 16,0 6,6 60 0,0
24.03.2020 13:00:00 14,8 5,4 60 0,0
24.03.2020 12:00:00 14,6 5,2 60 0,0
24.03.2020 11:00:00 13,0 4,2 60 0,0
24.03.2020 10:00:00 10,3 2,3 60 0,0
24.03.2020 09:00:00 7,9 0,5 60 0,0
24.03.2020 08:00:00 5,3 -0,7 24 0,0
24.03.2020 07:00:00 3,3 -1,8 6 0,0
24.03.2020 06:00:00 2,7 -2,3 0 0,0
24.03.2020 05:00:00 2,5 -2,2 0 0,0
24.03.2020 04:00:00 2,2 -2,1 0 0,0
24.03.2020 03:00:00 2,4 -2,3 0 0,0
24.03.2020 02:00:00 3,3 -1,8 0 0,0
24.03.2020 01:00:00 3,3 -1,4 0 0,0
24.03.2020 00:00:00 4,2 -1,2 - 0,0
23.03.2020 23:00:00 4,9 -0,9 0 0,0
23.03.2020 22:00:00 6,3 -1,1 0 0,0
23.03.2020 21:00:00 7,1 -1,7 0 0,0
23.03.2020 20:00:00 7,8 -1,7 0 0,0
23.03.2020 19:00:00 9,3 -1,7 0 0,0
23.03.2020 18:00:00 11,3 -2,7 48 0,0
23.03.2020 17:00:00 12,1 -1,6 36 0,0
23.03.2020 16:00:00 12,2 -1,3 42 0,0
23.03.2020 15:00:00 12,5 -1,1 60 0,0
23.03.2020 14:00:00 11,9 -1,8 60 0,0
23.03.2020 13:00:00 11,0 -0,8 60 0,0
23.03.2020 12:00:00 9,7 -0,7 60 0,0
23.03.2020 11:00:00 8,0 -0,1 30 0,0
23.03.2020 10:00:00 5,3 0,9 12 0,0
23.03.2020 09:00:00 4,1 0,9 48 0,0
23.03.2020 08:00:00 1,4 0,2 60 0,0
23.03.2020 07:00:00 -0,9 -1,4 24 0,0
23.03.2020 06:00:00 -1,5 -2,2 0 0,0
23.03.2020 05:00:00 -1,2 -2,0 0 0,0
23.03.2020 04:00:00 -0,9 -2,1 0 0,0
23.03.2020 03:00:00 0,4 -0,9 0 0,0
23.03.2020 02:00:00 1,2 -0,5 0 0,0
23.03.2020 01:00:00 2,1 -0,3 0 0,0
23.03.2020 00:00:00 2,5 0,1 - 0,0
22.03.2020 23:00:00 2,5 0,2 0 0,0
22.03.2020 22:00:00 2,4 0,1 0 0,0
22.03.2020 21:00:00 3,0 -0,1 0 0,0
22.03.2020 20:00:00 4,3 0,1 0 0,0

tt = temperature
td = dewpoint
sd = sunshine duration
rr = precipitation

Next stations